Location: Florence
(33.9745°N, 118.2481°W)
Time: 20:40:05
(UTC+00:00)

USA 234 - Pass Details

Date: 23 March 2023
Orbit: 1098 x 1109 km, 123.0° (Epoch: 03 June)

Event Time Altitude Azimuth Distance (km) Brightness Sun altitude
Rises 13:09:21 0° 39° (NE) 3,935 6.9 -9.8°
Reaches altitude 10° 13:11:52 10° 36° (NE) 2,974 6.2 -9.3°
Maximum altitude 13:18:19 62° 318° (NW) 1,237 3.4 -8.0°
Drops below altitude 10° 13:24:45 10° 239° (WSW) 2,959 5.0 -6.6°
Enters shadow 13:26:31 - 237° (WSW) 3,635 5.4 -6.3°
